Powrót do katalogu

DELTA 1 DEB *

AktywnyPO
NORAD 8679·DEBRIS·🇺🇸 United States

Wystrzelony Jan 22, 1975 z Vandenberg Space Force Base

Loading…

Następne Przeloty (najbliższe 24 godziny)

TLE

ŚwieżeSource: Space-Track

Epoka: Sep 14, 2026, 09:42 UTC

1 08679U 75004G   26257.40483990  .00008452  00000-0  62033-3 0  9991
2 08679  98.7196 163.2601 0101554 141.8525 218.9941 14.99673519655782

Śledź DELTA 1 DEB * w czasie rzeczywistym z AllMySat

Download on the App Store